Change the Weather History Date:

Monday, October 29, 2012

  Actual Average Record
Temperature  
Mean Temperature 46 °F -  
Max Temperature 50 °F 48 °F 60 °F (2005)
Min Temperature 41 °F 37 °F 30 °F (1997)
Degree Days  
Heating Degree Days 20    
Moisture  
Dew Point 41 °F    
Average Humidity 88    
Maximum Humidity 93    
Minimum Humidity 82    
Precipitation  
Precipitation 0.00 in - - ()
Sea Level Pressure  
Sea Level Pressure 29.72 in    
Wind  
Wind Speed 5 mph ()    
Max Wind Speed 14 mph    
Max Gust Speed -    
Visibility 6.1 miles    
Events Rain    
Averages and records for this station are not official NWS values.
T = Trace of Precipitation, MM = Missing Value Source: Averaged Metar Reports

Daily Weather History Graph

Daily Weather History Graph

Search for Another Location

Airport or City:

Trip Planner

Search our weather history database for the weather conditions in past years. The results will help you decide how hot, cold, wet, or windy it might be!

Date:

Astronomy

Oct. 29, 2012 Rise Set
Actual Time 7:02 AM GMT 4:35 PM GMT
Civil Twilight 6:24 AM GMT 5:13 PM GMT
Nautical Twilight 5:42 AM GMT 5:55 PM GMT
Astronomical Twilight 5:01 AM GMT 6:36 PM GMT
Moon 4:13 PM GMT (10/29) 6:41 AM GMT (10/29)
Length of Visible Light 10h 48m
Length of Day
9h 32m
Full, 100% of the Moon is Illuminated
Oct 29
Full
Oct 29
Full
Nov 7
Last Quarter
Nov 13
New
Nov 20
First Quarter

Hourly Weather History & Observations

Time (GMT) Temp. Windchill Dew Point Humidity Pressure Visibility Wind Dir Wind Speed Gust Speed Precip Events Conditions
5:50 AM 44.6 °F 41.4 °F 42.8 °F 93% 29.68 in 6.2 mi SSW 5.8 mph - N/A   Mostly Cloudy
6:20 AM 44.6 °F - 42.8 °F 93% 29.68 in 6.2 mi West 2.3 mph - N/A   Mostly Cloudy
6:50 AM 44.6 °F - 42.8 °F 93% 29.68 in 6.2 mi Calm Calm - N/A   Mostly Cloudy
7:20 AM 44.6 °F 43.1 °F 42.8 °F 93% 29.71 in 6.2 mi SW 3.5 mph - N/A   Mostly Cloudy
7:50 AM 44.6 °F 43.1 °F 42.8 °F 93% 29.71 in 6.2 mi WSW 3.5 mph - N/A   Mostly Cloudy
8:20 AM 44.6 °F 42.2 °F 42.8 °F 93% 29.71 in 6.2 mi SW 4.6 mph - N/A   Scattered Clouds
8:50 AM 44.6 °F 42.2 °F 42.8 °F 93% 29.71 in 6.2 mi West 4.6 mph - N/A   Scattered Clouds
9:20 AM 46.4 °F 43.5 °F 42.8 °F 87% 29.71 in 6.2 mi WSW 5.8 mph - N/A   Mostly Cloudy
9:50 AM 46.4 °F 45.2 °F 42.8 °F 87% 29.71 in 6.2 mi West 3.5 mph - N/A   Scattered Clouds
10:20 AM 48.2 °F - 44.6 °F 87% 29.71 in 6.2 mi WNW 4.6 mph - N/A   Scattered Clouds
10:50 AM 50.0 °F - 44.6 °F 82% 29.71 in 6.2 mi NW 4.6 mph - N/A   Mostly Cloudy
11:20 AM 48.2 °F - 42.8 °F 82% 29.71 in 6.2 mi NNW 10.4 mph - N/A   Mostly Cloudy
11:50 AM 48.2 °F - 42.8 °F 82% 29.71 in 6.2 mi North 13.8 mph - N/A   Mostly Cloudy
12:20 PM 48.2 °F - 42.8 °F 82% 29.74 in 6.2 mi North 12.7 mph - N/A   Partly Cloudy
12:50 PM 48.2 °F - 42.8 °F 82% 29.71 in 6.2 mi North 10.4 mph - N/A   Scattered Clouds
1:20 PM 48.2 °F - 42.8 °F 82% 29.71 in 6.2 mi North 10.4 mph - N/A   Scattered Clouds
1:50 PM 48.2 °F - 42.8 °F 82% 29.74 in 5.6 mi NNW 8.1 mph - N/A   Mostly Cloudy
2:20 PM 48.2 °F - 42.8 °F 82% 29.74 in 5.6 mi North 13.8 mph - N/A Rain Light Rain Showers
2:50 PM 46.4 °F 41.9 °F 42.8 °F 87% 29.74 in 5.0 mi North 9.2 mph - N/A Rain Light Rain Showers
3:20 PM 46.4 °F 41.1 °F 42.8 °F 87% 29.74 in 5.0 mi North 11.5 mph - N/A   Mostly Cloudy
3:50 PM 44.6 °F 41.4 °F 41.0 °F 87% 29.74 in 6.2 mi North 5.8 mph - N/A   Mostly Cloudy
4:20 PM 44.6 °F 41.4 °F 41.0 °F 87% 29.74 in 6.2 mi North 5.8 mph - N/A   Scattered Clouds
4:50 PM 44.6 °F 43.1 °F 41.0 °F 87% 29.71 in 6.2 mi North 3.5 mph - N/A   Scattered Clouds
5:20 PM 44.6 °F 43.1 °F 41.0 °F 87% 29.71 in 6.2 mi West 3.5 mph - N/A   Scattered Clouds
5:50 PM 42.8 °F 40.1 °F 41.0 °F 93% 29.71 in 6.2 mi West 4.6 mph - N/A   Scattered Clouds
6:20 PM 42.8 °F 40.1 °F 39.2 °F 87% 29.74 in 6.2 mi WNW 4.6 mph - N/A   Scattered Clouds
6:50 PM 42.8 °F 41.1 °F 39.2 °F 87% 29.74 in 6.2 mi West 3.5 mph - N/A   Scattered Clouds
7:20 PM 42.8 °F 39.3 °F 39.2 °F 87% 29.74 in 6.2 mi WNW 5.8 mph - N/A   Mostly Cloudy
7:50 PM 42.8 °F 40.1 °F 39.2 °F 87% 29.74 in 6.2 mi West 4.6 mph - N/A   Mostly Cloudy
8:20 PM 42.8 °F 40.1 °F 39.2 °F 87% 29.74 in 6.2 mi WNW 4.6 mph - N/A   Mostly Cloudy
8:50 PM 42.8 °F 39.3 °F 39.2 °F 87% 29.74 in 6.2 mi West 5.8 mph - N/A   Mostly Cloudy
9:20 PM 42.8 °F 40.1 °F 39.2 °F 87% 29.74 in 6.2 mi WNW 4.6 mph - N/A   Mostly Cloudy
9:50 PM 42.8 °F - 39.2 °F 87% 29.74 in 6.2 mi WSW 2.3 mph - N/A   Mostly Cloudy
10:20 PM 41.0 °F 37.1 °F 39.2 °F 93% 29.71 in 6.2 mi WSW 5.8 mph - N/A   Mostly Cloudy
10:50 PM 41.0 °F 38.0 °F 39.2 °F 93% 29.71 in 6.2 mi WSW 4.6 mph - N/A   Mostly Cloudy
11:20 PM 41.0 °F 38.0 °F 39.2 °F 93% 29.71 in 6.2 mi SW 4.6 mph - N/A   Mostly Cloudy
11:50 PM 41.0 °F 38.0 °F 39.2 °F 93% 29.71 in 6.2 mi WSW 4.6 mph - N/A   Mostly Cloudy